Location: Beneden-Haastrecht
(52.0012°N, 4.7557°E)
Time: 14:52:45
(UTC+00:00)

Lacrosse 5 - Pass Details

Date: 24 October 2020
Orbit: 716 x 723 km, 57.0° (Epoch: 06 November)

Event Time Altitude Azimuth Distance (km) Brightness Sun altitude
Rises 19:10:45 0° 283° (WNW) 3,123 6.5 -25.7°
Reaches altitude 10° 19:13:13 10° 289° (WNW) 2,203 5.4 -26.0°
Maximum altitude 19:18:07 48° 4° (N) 936 2.4 -26.8°
Enters shadow 19:18:09 48° 5° (N) 936 2.4 -26.8°
